| time (UTC) | temp C | wind direction | speed KPH | gust KPH | rain 1hr cm | rain 24hr cm | rain mn cm | humidity % | barometer mb |
| 20260906064544 | 20 | 264 | 0.0 | 1.6 | 0.00 | 0.28 | 0.00 | 89 | 1010.5 |
| 20260906063012 | 20 | 351 | 0.0 | 1.6 | 0.00 | 0.28 | 0.00 | 88 | 1010.5 |
| 20260906061602 | 20 | 353 | 0.0 | 0.0 | 0.00 | 0.28 | 0.00 | 88 | 1010.5 |
| 20260906060022 | 20 | 62 | 0.0 | 0.0 | 0.00 | 0.28 | 0.00 | 88 | 1010.6 |
| 20260906054606 | 20 | 62 | 0.0 | 0.0 | 0.00 | 0.28 | 0.00 | 87 | 1010.6 |
| 20260906053028 | 20 | 62 | 0.0 | 0.0 | 0.00 | 0.28 | 0.00 | 87 | 1010.8 |
| 20260906051613 | 20 | 61 | 0.0 | 0.0 | 0.00 | 0.28 | 0.00 | 87 | 1010.9 |
| 20260906050040 | 21 | 166 | 0.0 | 0.0 | 0.00 | 0.28 | 0.00 | 88 | 1011.0 |
| 20260906044512 | 21 | 166 | 0.0 | 0.0 | 0.00 | 0.41 | 0.00 | 87 | 1011.1 |
| 20260906043055 | 21 | 166 | 0.0 | 0.0 | 0.00 | 0.41 | 0.00 | 85 | 1011.0 |
| 20260906041542 | 21 | 166 | 0.0 | 0.0 | 0.00 | 0.41 | 0.00 | 84 | 1011.0 |
| 20260906040112 | 21 | 165 | 0.0 | 0.0 | 0.00 | 0.41 | 0.00 | 83 | 1011.2 |
| 20260906034547 | 21 | 166 | 0.0 | 0.0 | 0.00 | 0.41 | 0.41 | 82 | 1011.1 |
| 20260906033020 | 21 | 166 | 0.0 | 0.0 | 0.00 | 0.41 | 0.41 | 79 | 1011.1 |
| 20260906031559 | 22 | 165 | 0.0 | 0.0 | 0.00 | 0.41 | 0.41 | 78 | 1011.2 |
| 20260906030034 | 22 | 166 | 0.0 | 0.0 | 0.00 | 0.41 | 0.41 | 78 | 1011.1 |
| 20260906024504 | 22 | 166 | 0.0 | 0.0 | 0.00 | 0.41 | 0.41 | 77 | 1011.1 |
| 20260906023100 | 22 | 163 | 0.0 | 0.0 | 0.00 | 0.41 | 0.41 | 77 | 1011.1 |
| 20260906021525 | 22 | 167 | 0.0 | 0.0 | 0.00 | 0.41 | 0.41 | 76 | 1011.0 |
| 20260906020108 | 22 | 167 | 0.0 | 0.0 | 0.00 | 0.41 | 0.41 | 76 | 1010.9 |
| 20260906014546 | 23 | 174 | 0.0 | 1.6 | 0.00 | 0.41 | 0.41 | 75 | 1010.7 |
| 20260906013016 | 23 | 176 | 0.0 | 1.6 | 0.00 | 0.41 | 0.41 | 75 | 1010.7 |
| 20260906011559 | 23 | 160 | 0.0 | 1.6 | 0.00 | 0.41 | 0.41 | 74 | 1010.7 |
| 20260906010054 | 23 | 171 | 0.0 | 3.2 | 0.00 | 0.41 | 0.41 | 74 | 1010.5 |
| 20260906004609 | 23 | 99 | 0.0 | 3.2 | 0.00 | 0.41 | 0.41 | 74 | 1010.6 |
| 20260906003045 | 23 | 223 | 0.0 | 3.2 | 0.00 | 0.41 | 0.41 | 74 | 1010.3 |
| 20260906001507 | 23 | 130 | 0.0 | 4.8 | 0.00 | 0.41 | 0.41 | 74 | 1010.2 |
| 20260906000052 | 23 | 214 | 1.6 | 4.8 | 0.00 | 0.41 | 0.41 | 73 | 1009.9 |
| 20260905234527 | 23 | 155 | 1.6 | 4.8 | 0.00 | 0.41 | 0.41 | 73 | 1009.9 |
| 20260905233106 | 23 | 98 | 1.6 | 6.4 | 0.00 | 0.41 | 0.41 | 73 | 1009.7 |
| 20260905231543 | 24 | 34 | 1.6 | 9.7 | 0.00 | 0.41 | 0.41 | 71 | 1009.6 |
| 20260905230008 | 25 | 156 | 1.6 | 9.7 | 0.00 | 0.41 | 0.41 | 68 | 1009.4 |
| 20260905224549 | 26 | 32 | 3.2 | 11.3 | 0.00 | 0.41 | 0.41 | 55 | 1009.2 |
| 20260905223027 | 26 | 302 | 1.6 | 9.7 | 0.00 | 0.41 | 0.41 | 53 | 1009.3 |
| 20260905221559 | 26 | 30 | 3.2 | 11.3 | 0.00 | 0.41 | 0.41 | 52 | 1009.2 |
| 20260905220028 | 26 | 44 | 4.8 | 14.5 | 0.00 | 0.41 | 0.41 | 51 | 1009.0 |
| 20260905214605 | 26 | 270 | 1.6 | 11.3 | 0.00 | 0.41 | 0.41 | 51 | 1009.0 |
| 20260905213040 | 26 | 277 | 3.2 | 11.3 | 0.00 | 0.41 | 0.41 | 51 | 1008.8 |
| 20260905211513 | 26 | 264 | 3.2 | 11.3 | 0.00 | 0.41 | 0.41 | 52 | 1008.7 |
| 20260905210045 | 26 | 350 | 1.6 | 11.3 | 0.00 | 0.41 | 0.41 | 54 | 1008.8 |
| 20260905204509 | 26 | 56 | 3.2 | 8.0 | 0.00 | 0.41 | 0.41 | 58 | 1008.7 |
| 20260905203059 | 27 | 263 | 1.6 | 8.0 | 0.00 | 0.41 | 0.41 | 55 | 1008.8 |
| 20260905201526 | 27 | 57 | 1.6 | 9.7 | 0.00 | 0.41 | 0.41 | 55 | 1008.9 |
| 20260905194525 | 27 | 146 | 1.6 | 12.9 | 0.00 | 0.41 | 0.41 | 56 | 1009.1 |
| 20260905193110 | 27 | 150 | 1.6 | 6.4 | 0.00 | 0.41 | 0.41 | 56 | 1009.2 |
| 20260905191538 | 27 | 71 | 0.0 | 8.0 | 0.00 | 0.41 | 0.41 | 55 | 1009.3 |
| 20260905190012 | 27 | 233 | 1.6 | 8.0 | 0.00 | 0.41 | 0.41 | 55 | 1009.3 |
| 20260905184550 | 28 | 75 | 1.6 | 6.4 | 0.00 | 0.41 | 0.41 | 54 | 1009.4 |
| 20260905183020 | 27 | 51 | 1.6 | 8.0 | 0.00 | 0.41 | 0.41 | 56 | 1009.5 |
| 20260905181602 | 27 | 74 | 0.0 | 6.4 | 0.00 | 0.41 | 0.41 | 55 | 1009.7 |
| 20260905180034 | 27 | 58 | 3.2 | 9.7 | 0.00 | 0.41 | 0.41 | 56 | 1009.9 |
| 20260905174501 | 27 | 213 | 0.0 | 4.8 | 0.00 | 0.41 | 0.41 | 60 | 1009.9 |
| 20260905173044 | 27 | 28 | 1.6 | 6.4 | 0.00 | 0.41 | 0.41 | 57 | 1010.0 |
| 20260905171521 | 27 | 37 | 1.6 | 8.0 | 0.00 | 0.41 | 0.41 | 59 | 1010.0 |
| 20260905170108 | 26 | 95 | 0.0 | 8.0 | 0.00 | 0.41 | 0.41 | 61 | 1010.1 |
| 20260905164526 | 26 | 210 | 1.6 | 6.4 | 0.00 | 0.41 | 0.41 | 59 | 1010.3 |
| 20260905163107 | 26 | 318 | 1.6 | 8.0 | 0.00 | 0.41 | 0.41 | 61 | 1010.4 |
| 20260905161539 | 25 | 27 | 1.6 | 12.9 | 0.00 | 0.41 | 0.41 | 63 | 1010.4 |
| 20260905160009 | 25 | 204 | 1.6 | 6.4 | 0.00 | 0.41 | 0.41 | 62 | 1010.5 |
| 20260905154551 | 25 | 28 | 1.6 | 11.3 | 0.00 | 0.41 | 0.41 | 64 | 1010.6 |
| 20260905153023 | 25 | 334 | 1.6 | 9.7 | 0.00 | 0.41 | 0.41 | 63 | 1010.6 |
| 20260905151557 | 25 | 153 | 3.2 | 12.9 | 0.00 | 0.41 | 0.41 | 62 | 1010.8 |
| 20260905150027 | 25 | 34 | 0.0 | 12.9 | 0.00 | 0.41 | 0.41 | 64 | 1010.7 |
| 20260905144555 | 25 | 5 | 3.2 | 11.3 | 0.00 | 0.41 | 0.41 | 62 | 1010.5 |
| 20260905143026 | 25 | 266 | 1.6 | 14.5 | 0.00 | 0.41 | 0.41 | 64 | 1010.2 |
| 20260905141603 | 24 | 58 | 1.6 | 12.9 | 0.00 | 0.41 | 0.41 | 68 | 1010.1 |
| 20260905140033 | 24 | 276 | 3.2 | 14.5 | 0.00 | 0.41 | 0.41 | 70 | 1010.0 |
| 20260905134503 | 23 | 66 | 3.2 | 12.9 | 0.00 | 0.41 | 0.41 | 71 | 1010.1 |
| 20260905133043 | 23 | 66 | 3.2 | 11.3 | 0.00 | 0.41 | 0.41 | 74 | 1010.0 |
| 20260905131514 | 23 | 8 | 1.6 | 11.3 | 0.00 | 0.41 | 0.41 | 77 | 1010.0 |
| 20260905130050 | 22 | 299 | 1.6 | 9.7 | 0.00 | 0.41 | 0.41 | 77 | 1010.0 |
| 20260905124518 | 23 | 195 | 1.6 | 9.7 | 0.00 | 0.41 | 0.41 | 77 | 1010.0 |
| 20260905123110 | 23 | 214 | 3.2 | 9.7 | 0.00 | 0.41 | 0.41 | 77 | 1010.1 |
| 20260905121545 | 22 | 15 | 1.6 | 6.4 | 0.00 | 0.41 | 0.41 | 79 | 1010.0 |
| 20260905120009 | 22 | 300 | 3.2 | 8.0 | 0.00 | 0.41 | 0.41 | 79 | 1010.0 |
| 20260905114550 | 22 | 25 | 0.0 | 6.4 | 0.00 | 0.41 | 0.41 | 82 | 1009.8 |
| 20260905113017 | 22 | 297 | 1.6 | 9.7 | 0.00 | 0.41 | 0.41 | 84 | 1009.7 |
| 20260905111606 | 22 | 250 | 1.6 | 9.7 | 0.00 | 0.41 | 0.41 | 85 | 1009.5 |
| 20260905110031 | 22 | 193 | 3.2 | 8.0 | 0.00 | 0.41 | 0.41 | 86 | 1009.3 |
| 20260905104613 | 22 | 31 | 3.2 | 8.0 | 0.00 | 0.41 | 0.41 | 87 | 1009.1 |
| 20260905103033 | 22 | 230 | 0.0 | 3.2 | 0.00 | 0.41 | 0.41 | 89 | 1008.9 |
| 20260905101615 | 22 | 270 | 0.0 | 4.8 | 0.00 | 0.41 | 0.41 | 91 | 1008.9 |
| 20260905100043 | 22 | 238 | 0.0 | 4.8 | 0.00 | 0.41 | 0.41 | 92 | 1008.9 |
| 20260905094511 | 22 | 212 | 0.0 | 1.6 | 0.00 | 0.41 | 0.41 | 93 | 1008.7 |
| 20260905093053 | 22 | 50 | 0.0 | 3.2 | 0.00 | 0.41 | 0.41 | 93 | 1008.7 |
| 20260905091530 | 22 | 218 | 0.0 | 4.8 | 0.00 | 0.41 | 0.41 | 93 | 1008.7 |
| 20260905090135 | 22 | 20 | 0.0 | 3.2 | 0.00 | 0.41 | 0.41 | 93 | 1008.9 |
| 20260905084532 | 22 | 41 | 1.6 | 4.8 | 0.00 | 0.41 | 0.41 | 93 | 1008.8 |
| 20260905083110 | 22 | 94 | 0.0 | 0.0 | 0.00 | 0.41 | 0.41 | 93 | 1008.7 |
| 20260905081542 | 22 | 94 | 0.0 | 1.6 | 0.00 | 0.41 | 0.41 | 93 | 1008.8 |
| 20260905080016 | 22 | 238 | 0.0 | 4.8 | 0.00 | 0.41 | 0.41 | 93 | 1008.9 |
| 20260905074551 | 22 | 23 | 0.0 | 4.8 | 0.00 | 0.61 | 0.41 | 93 | 1008.8 |
| 20260905073023 | 22 | 40 | 1.6 | 4.8 | 0.05 | 0.61 | 0.41 | 93 | 1008.9 |
| 20260905071616 | 22 | 212 | 0.0 | 0.0 | 0.23 | 0.61 | 0.41 | 93 | 1008.8 |
| 20260905070047 | 22 | 195 | 0.0 | 3.2 | 0.28 | 0.61 | 0.41 | 93 | 1008.9 |